STARLINK-3848 (52362 NORAD) Tracking and Keplerian Element Data

This shows tracking and keplerian element data for the satellite.

Feedback or suggestion? Click here.




ElementValue
Catalog52362
NameSTARLINK-3848
Epoch Orbit130
Epoch Day167.08334491
Epoch Year2022
RAAN202.6732
Inclination53.214
Eccentricity0.0002823
Argument of Perigee14.8973
Mean Anonmoly287.5829
Mean Motion15.73242491
Decay Rate-0.00029822
L11 52362U 22045AH 22167.08334491 -.00029822 00000+0 -20837-3 0 9998
L22 52362 53.2140 202.6732 0002823 14.8973 287.5829 15.73242491 1307

Live tracking and technical data element details for STARLINK-3848 (NORAD 52362). STARLINK-3848 can be tracked NOW for your location showing map with azimuth and elevation plus other details from your city location.

Track the satellite on the map from your city or location and see movement details for azimuth, elevation, latitude, longitude, range, height, and movement on the map or in text.







IsCatalogInMostPopularTable: catalog: 52362, numindb: 5
Update: records affected: 1



GetName: 52362 STARLINK-3848

Hit Count: updated at: Mon, 27 Jun 2022 05:41:46 GMT